RH
71 74 82 86 92 95 100 99 100 100 98 101 94 97 88 67 72 79 82 87 83 73 67 65 68 67 70 71 68 75 74 75 74 77 86 75 68 70 75 76 76 77 76 76 76 75 68 66 52 37 50 63 62 52 59 70 71 72 71 72 71 70 70 69 67 66 66 69 72 73 75 76 76 74 73 75 76 77 77 77 77 77 77 78 77 76 77 76 77 77 74 76 78 77 76 75 75
73 80 92 96 96 96 99 98 99 99 99 100 94 97 88 75 78 80 83 84 75 60 59 63 64 68 65 63 61 65 80 89 74 74 83 71 71 73 72 73 72 76 75 77 76 72 68 62 51 41 47 61 59 49 57 63 68 71 69 70 71 71 72 70 68 66 66 70 74 74 76 76 76 75 75 77 77 77 76 75 77 77 78 79 78 77 77 76 76 76 75 76 79 79 77 74 74
76 86 95 98 98 98 98 98 99 97 100 99 93 93 88 90 83 75 79 74 65 54 60 65 64 71 67 65 65 71 92 96 74 71 84 72 70 75 71 72 71 75 76 79 78 72 69 61 49 42 52 63 53 48 55 59 67 69 67 70 71 72 74 72 71 70 71 73 74 75 76 75 76 76 76 77 76 76 76 76 78 78 78 78 78 78 77 77 77 77 77 78 79 78 77 74 73
79 90 94 96 98 101 99 99 99 97 100 96 91 90 88 91 77 66 70 63 58 55 63 66 67 72 69 73 74 80 96 99 82 67 79 71 62 70 71 72 71 75 78 79 79 73 69 62 49 43 57 62 48 50 55 59 66 65 65 69 70 70 71 73 73 74 73 73 74 74 74 75 76 76 76 77 76 77 77 79 78 77 78 77 78 78 77 77 77 76 76 77 78 77 75 73 73
87 92 94 97 97 99 98 99 98 97 98 94 89 85 87 85 72 65 63 58 56 55 59 62 65 70 71 75 75 84 93 98 92 66 68 67 58 67 71 72 73 75 77 79 79 74 70 61 49 48 61 58 48 52 54 59 63 60 63 67 67 66 67 69 72 74 74 74 75 75 76 76 77 78 78 79 79 78 78 79 78 78 76 76 77 78 77 77 76 76 76 77 77 76 73 71 74
95 96 97 99 98 98 98 99 97 97 91 90 94 87 84 82 73 69 65 61 56 54 56 59 65 70 75 78 78 88 89 87 86 70 61 62 62 67 70 73 74 74 75 78 78 70 64 61 53 56 63 54 48 52 54 60 61 58 62 64 65 65 65 66 69 72 72 74 75 76 75 75 77 77 77 79 81 80 80 79 79 78 76 75 77 77 77 77 77 76 75 76 76 75 72 68 73
95 98 100 100 99 98 100 100 96 100 89 78 89 89 82 80 77 73 72 67 57 54 55 58 62 69 77 79 83 87 84 78 72 64 57 60 66 66 68 73 74 74 75 76 72 59 57 63 61 62 61 48 45 51 52 58 60 58 59 59 63 66 66 66 68 68 68 69 69 71 70 72 73 73 76 78 80 80 79 79 79 79 77 75 75 75 75 75 76 76 76 74 73 73 72 68 71
96 95 96 99 100 98 100 100 92 89 82 71 76 82 82 80 80 77 78 72 56 53 57 59 60 71 79 76 86 85 80 79 65 55 56 62 66 66 68 71 73 75 76 75 68 58 60 67 65 65 56 41 44 50 49 55 58 57 56 57 63 67 67 67 68 69 70 69 67 68 68 70 72 74 77 78 79 77 75 75 76 77 76 75 74 74 74 75 75 75 76 75 73 71 72 69 68
97 96 96 97 99 98 97 96 87 74 69 71 75 78 81 80 82 80 79 77 62 54 60 62 62 74 83 79 86 84 80 78 62 54 59 64 65 66 68 69 70 72 75 73 65 61 65 67 66 66 49 38 44 46 46 51 54 55 54 56 64 65 66 69 69 72 73 72 71 70 71 73 76 78 78 78 78 73 70 71 73 75 74 73 73 73 73 75 76 75 75 74 73 71 70 69 69
98 98 94 96 97 98 94 84 83 76 68 70 77 79 78 78 80 81 81 83 69 57 61 64 68 77 83 84 86 82 80 74 61 61 64 64 67 67 67 68 67 67 72 68 62 61 65 67 68 62 43 40 44 42 45 47 49 51 51 56 63 60 61 68 71 73 74 74 73 72 75 77 78 78 76 75 73 70 69 70 70 72 72 71 70 69 69 71 73 73 74 75 75 73 69 69 72
98 98 90 97 98 97 92 81 81 78 70 70 79 79 76 78 78 79 83 85 71 62 67 68 74 80 82 86 88 81 75 69 62 65 66 66 69 67 68 69 65 64 66 63 59 60 65 67 69 58 40 41 41 42 46 43 44 47 51 60 62 54 55 65 70 73 74 73 70 71 74 75 76 73 72 71 69 68 66 67 68 69 70 70 69 68 67 67 68 70 72 74 76 74 71 70 73
96 97 92 99 100 96 86 82 82 72 68 74 80 76 73 76 79 79 81 83 70 65 68 69 75 80 84 87 90 83 75 70 64 66 67 69 69 66 68 69 66 63 62 59 57 62 67 69 69 57 41 39 38 43 45 39 40 44 53 63 60 50 51 59 64 69 72 72 70 69 69 70 70 69 69 69 67 65 62 62 64 67 68 67 67 68 68 68 68 68 70 72 74 74 72 71 71
90 92 94 96 97 93 81 83 81 71 77 78 71 69 68 73 80 77 78 79 65 64 66 69 75 77 85 88 90 86 80 76 66 66 69 72 70 67 67 65 65 63 62 57 56 67 70 70 66 53 42 39 39 44 45 39 38 44 56 61 55 47 47 50 54 62 68 71 71 68 68 68 67 66 67 66 64 60 58 57 58 62 65 64 62 63 65 67 69 68 69 70 72 74 72 70 71
83 80 86 90 93 86 79 83 73 69 81 73 62 64 68 71 75 70 77 78 59 62 68 70 74 77 88 89 90 88 85 80 67 69 75 77 73 68 65 62 64 63 63 56 56 71 72 70 63 48 41 39 40 46 48 42 38 44 54 53 47 44 44 45 47 54 60 65 69 70 70 69 67 65 63 62 61 56 53 54 55 59 62 63 60 60 61 63 67 67 67 66 66 68 68 70 73
79 72 77 92 94 82 76 74 64 67 69 61 58 61 66 68 68 64 75 76 59 63 70 72 69 73 87 87 88 88 86 81 74 82 86 83 76 68 64 63 66 64 63 57 58 68 65 63 54 41 38 36 36 42 46 46 44 44 47 45 42 42 43 44 44 49 54 56 61 67 69 71 71 68 64 59 56 53 50 51 54 58 60 62 61 60 60 59 62 64 64 62 61 62 65 72 75
75 68 73 88 89 81 72 64 63 68 59 52 52 55 65 65 64 65 70 68 62 66 67 71 65 61 76 81 83 85 86 83 83 91 90 88 81 69 65 67 68 66 65 60 60 60 54 51 44 37 36 35 34 37 41 45 49 45 42 42 41 42 43 44 44 46 50 51 54 59 66 69 71 72 68 59 54 50 49 50 53 57 60 62 64 63 62 60 59 58 59 58 59 63 67 74 75
69 68 76 82 81 77 68 55 55 58 52 52 50 53 64 63 62 65 64 61 61 64 62 66 61 58 71 79 81 83 86 84 86 92 91 92 88 78 73 71 70 70 69 65 60 52 47 45 37 35 35 35 34 36 39 42 47 43 41 43 42 42 43 45 45 45 46 48 52 56 60 63 66 69 66 59 53 48 48 49 50 56 59 61 64 66 67 66 62 60 59 58 61 64 67 72 72
66 69 77 78 74 67 56 47 44 47 50 58 57 52 59 60 57 58 59 58 57 60 62 65 65 66 73 78 81 85 87 85 88 93 93 93 90 86 80 74 71 70 70 68 63 50 44 41 34 34 35 35 34 35 38 39 42 42 42 43 43 42 43 45 46 45 46 51 57 60 62 61 63 63 61 60 54 48 47 49 50 53 58 61 63 68 72 72 69 67 66 65 67 69 70 71 70
61 64 72 69 64 56 44 41 41 42 47 57 56 48 54 55 49 50 52 54 55 58 62 65 70 73 76 79 83 86 86 86 90 91 92 90 89 86 76 74 71 68 69 69 65 53 44 38 34 33 33 34 34 34 37 36 37 40 42 41 42 42 42 46 50 48 48 57 63 63 65 64 63 63 63 62 58 54 49 47 49 50 56 60 62 70 74 73 71 70 71 71 72 73 73 73 72
52 56 67 63 54 48 40 40 39 39 43 50 50 46 51 48 43 46 47 49 51 56 62 64 71 75 77 81 83 86 86 87 89 90 92 90 88 81 70 70 69 64 65 64 63 57 46 39 33 33 33 33 33 33 35 34 36 39 40 39 40 41 41 46 54 55 52 59 64 63 64 63 63 67 69 64 60 59 53 48 46 49 54 59 63 68 72 74 75 74 76 76 76 75 72 72 73
46 49 59 54 46 48 42 37 35 34 37 42 42 43 46 42 41 43 44 50 51 53 59 62 70 75 77 81 83 84 85 87 89 90 93 92 90 81 68 65 64 59 59 61 61 56 49 40 32 32 33 33 33 33 33 34 35 37 37 38 38 39 40 43 54 62 58 59 64 63 61 59 59 64 68 64 62 60 54 49 45 48 55 61 65 68 73 76 77 79 81 80 80 80 73 71 72
44 44 47 43 42 47 41 35 34 30 32 39 40 41 41 37 39 41 42 50 50 50 56 61 67 72 76 79 80 81 82 86 89 90 92 91 89 81 69 65 63 59 59 60 57 54 51 42 32 31 32 32 33 33 33 33 34 35 34 35 36 36 39 41 52 63 62 60 63 64 61 57 55 60 66 64 68 69 62 56 50 52 61 68 69 72 78 77 78 81 82 80 80 81 75 70 71
44 41 38 39 39 39 36 35 34 28 32 40 40 37 37 36 39 39 40 45 45 47 53 59 63 69 73 76 77 77 79 84 86 87 89 87 82 76 69 65 63 59 59 58 54 52 52 45 34 30 31 31 32 32 33 33 33 34 33 33 32 33 37 41 51 62 62 59 62 64 63 59 55 60 66 66 73 77 72 67 61 60 68 75 73 74 78 77 78 81 81 78 76 79 77 71 70
42 39 34 34 36 34 33 34 31 30 32 34 35 35 35 37 39 38 38 41 43 46 52 57 62 68 71 73 75 75 77 81 82 83 85 84 78 72 67 64 61 58 58 59 55 53 52 46 36 31 30 30 31 30 31 31 32 33 32 32 29 31 37 41 49 60 63 60 62 65 64 63 60 60 64 67 74 76 72 73 72 69 72 78 76 74 76 76 78 80 81 79 76 77 77 73 69
38 37 32 30 32 32 31 32 31 31 30 30 36 38 35 33 34 36 38 40 43 47 53 58 64 68 70 72 73 75 77 78 79 82 85 86 82 78 74 69 65 61 61 61 57 53 52 47 37 32 30 30 30 30 30 30 30 30 30 29 27 32 40 44 49 59 64 61 62 68 66 66 67 65 64 66 72 74 71 74 76 75 74 77 76 76 78 76 78 81 84 83 79 76 75 74 69
34 33 32 28 28 29 31 33 31 31 31 32 38 39 35 31 33 36 37 41 46 49 54 59 64 68 70 72 73 75 77 77 77 79 82 85 86 86 84 78 71 65 62 60 56 53 53 47 38 35 31 30 31 30 30 29 29 29 28 27 29 37 44 48 53 59 65 61 60 69 69 67 70 70 66 65 71 72 71 74 75 75 75 76 74 75 79 78 78 81 83 83 80 76 75 74 70
30 28 28 27 26 27 31 34 31 31 31 32 35 38 34 30 34 37 36 43 48 50 55 58 62 66 68 71 72 74 76 77 77 78 80 83 86 87 87 85 78 67 60 58 56 54 53 47 41 38 35 33 32 31 30 29 29 28 27 26 32 42 47 53 59 60 64 62 59 66 70 69 71 73 70 69 72 71 71 76 75 72 74 78 76 74 78 80 80 79 79 80 81 79 77 75 72
29 27 25 24 24 25 31 33 32 32 32 31 32 35 33 31 34 34 37 45 50 53 56 57 59 62 64 68 71 72 74 76 76 77 79 80 82 83 85 85 81 75 66 60 57 54 51 47 45 43 40 37 34 33 32 31 31 31 29 27 32 42 50 60 67 64 66 64 59 63 68 69 70 72 73 72 70 69 71 74 74 73 75 78 77 75 77 79 79 76 75 78 82 80 76 76 76
29 28 26 24 21 23 30 32 31 31 31 29 30 38 38 33 32 31 37 47 51 54 56 57 58 59 61 65 67 69 70 73 74 75 76 76 76 77 80 80 79 78 72 63 57 54 50 47 47 48 47 43 38 35 34 33 34 35 33 29 32 42 53 66 71 69 70 68 62 61 64 68 69 70 74 74 70 69 70 70 72 73 76 76 72 74 77 79 80 77 78 81 83 81 77 75 75
26 25 26 25 22 23 27 30 30 29 29 26 30 45 46 35 31 32 40 49 51 54 57 57 58 59 59 60 63 66 67 69 71 71 72 73 71 71 75 76 77 77 74 69 62 57 53 49 49 51 50 48 44 39 35 35 36 39 39 37 41 45 52 65 73 73 72 72 66 60 60 63 65 69 72 72 69 72 72 69 69 69 74 75 70 72 78 81 81 81 82 81 83 83 79 74 72
22 22 23 25 28 29 27 28 31 30 29 24 29 46 48 35 32 36 44 49 51 54 56 57 58 58 59 58 59 61 63 66 67 67 68 68 68 69 71 74 76 77 75 72 66 60 57 54 54 55 54 52 48 41 37 36 37 42 44 47 54 52 54 66 75 73 70 73 71 64 61 58 58 65 69 69 68 73 74 68 68 70 72 71 69 71 77 82 82 81 82 82 82 81 78 73 71
20 23 27 25 29 33 27 27 30 30 28 25 30 44 44 35 33 38 44 48 50 53 54 56 57 56 57 57 57 58 59 63 64 65 66 67 68 69 71 73 75 77 77 75 69 65 64 62 60 59 57 54 49 42 38 38 41 48 48 53 64 61 59 70 75 72 69 74 76 71 66 59 56 58 62 66 67 69 72 69 68 73 72 67 70 72 73 81 81 76 78 82 80 73 69 69 67
22 24 30 28 27 30 27 25 26 27 28 27 30 39 40 35 33 36 42 46 48 51 52 54 55 55 56 56 56 57 58 60 61 62 63 66 68 69 71 73 74 76 77 75 72 70 70 68 66 60 53 50 48 44 40 41 48 54 52 56 70 69 65 69 73 74 71 73 76 74 70 62 58 56 55 61 65 64 68 70 69 74 75 71 75 74 71 80 81 74 76 82 79 68 64 66 63
28 26 28 28 27 28 27 24 23 23 26 28 29 33 35 34 33 35 39 44 46 49 50 52 53 53 55 56 57 58 58 59 60 60 60 63 66 68 70 72 73 76 77 75 72 70 71 72 71 65 55 49 49 46 42 44 54 61 59 62 72 74 69 68 72 73 70 69 72 73 72 69 64 58 55 57 60 62 65 69 71 75 78 74 74 72 71 80 83 75 75 80 78 70 65 64 65
29 28 28 27 25 27 27 24 21 22 24 26 29 31 31 32 34 35 37 40 43 46 49 50 51 52 54 55 57 58 58 59 60 59 59 61 63 65 68 70 72 74 76 77 74 71 73 75 74 70 63 55 51 49 44 48 61 67 69 72 76 78 74 71 73 72 68 67 69 70 72 73 67 56 55 57 56 60 64 66 70 74 76 73 69 67 68 78 81 74 72 75 76 77 71 63 65
24 25 26 26 24 25 25 23 21 22 25 26 28 29 29 31 35 35 36 37 39 42 46 49 50 51 53 55 56 57 58 59 59 59 59 59 61 63 66 69 70 71 73 77 76 74 75 77 78 76 70 63 58 54 51 56 69 74 77 81 80 78 73 71 73 73 70 70 71 71 70 71 66 54 54 56 54 56 61 63 67 71 73 70 68 67 67 72 77 74 69 70 76 81 75 65 62
20 21 23 23 24 23 21 20 19 20 26 28 26 27 27 28 33 35 35 35 37 39 42 46 49 50 53 55 55 56 57 57 58 58 58 58 60 61 64 66 67 67 69 73 76 75 75 76 80 77 72 71 67 59 57 62 67 71 76 78 76 74 69 68 73 74 74 76 77 74 70 69 64 55 53 55 54 54 58 61 64 69 71 69 70 71 71 73 75 73 68 67 73 77 73 68 65
19 20 22 22 24 22 18 18 18 18 24 28 26 27 27 25 28 33 34 35 36 37 38 41 45 49 52 54 54 55 55 56 57 58 57 57 59 60 61 64 66 68 68 70 72 73 74 77 81 78 73 74 70 62 61 64 63 62 65 65 65 66 64 63 68 72 75 79 83 78 71 69 66 58 53 53 53 52 56 59 60 65 67 67 71 71 71 74 71 68 67 66 67 70 68 66 65
21 20 21 23 22 21 19 17 16 16 21 26 26 27 27 24 26 31 34 35 35 35 36 39 42 47 51 53 54 54 55 55 56 57 58 57 57 59 61 63 65 67 69 69 70 70 73 79 83 81 77 75 72 67 65 63 60 59 60 58 55 57 59 59 62 70 77 79 82 80 73 69 66 61 55 52 52 50 53 57 56 60 64 65 67 67 67 70 69 67 68 68 63 60 59 59 61
21 21 23 23 20 21 22 18 15 15 18 23 25 26 26 26 29 32 33 33 34 34 35 37 40 44 49 51 52 53 54 55 55 55 56 57 57 58 60 63 65 67 69 70 70 71 73 77 81 82 80 77 74 73 69 63 63 66 67 62 56 56 59 61 66 74 81 81 80 80 76 69 64 63 57 52 51 49 51 54 53 56 63 64 64 67 67 66 68 70 69 71 65 55 53 57 61
21 21 22 22 19 20 21 18 16 14 15 18 23 29 29 29 34 36 33 33 33 34 36 37 39 42 46 50 50 52 53 53 54 54 55 56 57 57 58 61 64 66 68 70 70 71 74 75 78 81 81 78 74 74 73 69 71 76 78 77 75 76 76 75 77 79 82 81 77 74 74 68 62 61 59 53 52 51 50 52 52 53 61 65 64 68 70 66 68 72 70 71 70 63 58 57 60
22 20 20 19 19 19 19 19 17 18 19 18 22 34 35 31 36 38 33 35 36 34 36 38 39 40 43 49 51 51 52 52 53 53 54 55 56 56 58 59 61 64 66 67 68 70 71 73 78 81 82 81 76 74 74 72 74 77 77 79 79 81 82 76 71 68 68 69 67 66 69 67 60 58 58 55 54 54 52 51 51 53 60 64 66 69 71 67 66 70 70 71 72 71 69 63 60
25 20 17 17 18 19 21 19 19 24 23 18 19 32 37 31 34 38 34 36 37 36 37 37 38 39 40 45 50 51 52 53 53 53 53 54 56 56 57 58 60 62 64 65 67 68 69 71 75 80 82 82 78 76 76 73 73 74 71 67 62 59 59 54 52 54 55 57 59 61 65 65 60 57 56 53 53 55 54 52 51 54 60 64 66 67 68 66 65 69 70 70 70 68 66 63 61
25 19 16 17 18 18 20 20 22 24 20 20 19 24 33 32 29 32 34 37 38 37 38 37 37 38 39 41 46 50 51 52 53 53 53 53 54 56 56 57 58 59 62 64 66 68 69 70 73 77 79 80 78 78 78 73 68 68 66 63 56 48 43 40 43 51 56 56 56 57 59 62 61 58 55 52 50 52 54 53 52 55 60 63 65 63 63 65 67 69 70 69 69 65 60 60 61
23 18 16 17 17 18 19 19 22 20 19 27 25 20 31 35 28 28 33 37 39 39 38 36 36 36 37 39 43 47 49 51 52 52 52 52 53 54 54 55 57 58 61 63 65 66 68 70 72 75 77 79 79 79 79 73 65 60 60 60 55 47 42 41 42 48 55 57 57 56 55 58 60 57 56 53 50 51 53 53 52 55 59 61 63 62 63 66 68 69 70 68 66 66 65 65 66
19 16 17 17 17 18 18 19 21 20 22 30 25 19 28 36 31 29 35 38 38 38 37 34 34 35 36 38 41 46 48 50 51 50 51 51 51 53 54 54 56 59 60 61 63 65 68 71 73 75 77 78 79 79 79 75 68 62 60 58 53 47 45 45 45 47 52 56 58 57 52 52 53 51 51 52 50 48 51 53 51 54 59 60 61 63 64 67 68 68 70 68 65 65 66 65 67
17 17 17 17 18 19 19 22 22 22 26 26 20 16 21 32 36 30 31 35 33 34 36 34 33 34 36 37 40 44 48 49 50 50 50 50 50 52 53 55 56 58 60 62 63 65 67 69 71 73 75 77 78 78 79 77 73 66 59 54 50 47 45 44 46 47 49 53 55 54 50 47 46 44 44 48 49 45 47 51 50 51 57 61 61 62 65 66 66 66 67 69 67 65 64 61 61
17 17 18 22 23 20 21 23 23 27 33 28 21 15 12 26 41 33 24 27 28 30 34 33 33 35 36 38 41 44 46 48 50 50 50 50 50 52 53 54 55 58 61 62 63 64 64 65 67 70 73 75 76 77 78 78 77 69 60 53 49 47 45 44 44 45 46 49 49 49 49 47 45 43 41 45 46 43 43 48 49 49 54 59 60 60 62 65 66 65 65 67 66 64 64 61 56
19 19 21 26 28 25 26 28 26 29 34 29 20 14 12 23 37 32 22 21 23 26 29 30 31 33 36 38 41 44 46 48 49 50 51 50 50 51 53 54 55 57 60 61 62 63 63 63 66 69 71 71 73 75 77 78 78 71 61 54 50 48 47 45 42 42 42 43 45 47 47 45 43 41 38 40 43 42 44 47 47 44 47 55 60 60 59 61 64 65 65 65 64 64 63 60 54
20 20 22 28 30 30 33 31 26 27 30 23 13 13 18 21 23 21 17 17 18 22 25 27 28 30 34 37 39 42 45 47 49 49 50 50 50 51 52 53 55 56 57 58 60 61 63 64 65 67 68 68 68 71 73 76 76 70 61 54 49 48 47 46 43 41 39 40 40 41 40 38 36 34 32 35 40 42 44 46 46 43 42 48 56 61 60 60 62 65 67 66 63 63 63 62 57
18 17 19 25 28 29 33 30 23 24 27 20 11 15 20 19 19 17 14 13 14 20 25 25 26 28 32 35 38 41 44 46 48 50 49 50 49 50 51 53 54 55 56 57 59 60 62 63 64 65 66 66 66 66 67 70 71 69 65 57 51 48 45 44 43 40 39 38 36 34 34 33 32 31 31 33 38 43 43 43 45 45 43 43 48 56 61 62 62 64 68 69 67 64 64 64 62
16 14 16 22 24 25 29 29 25 25 24 19 16 20 21 18 19 16 12 13 12 17 25 26 26 28 30 34 37 39 43 45 48 50 50 50 49 50 51 52 53 54 55 57 58 60 61 62 62 63 63 63 64 63 61 59 60 63 65 61 54 48 44 44 44 43 41 38 35 31 29 31 33 33 34 35 38 44 45 43 44 44 44 44 44 49 56 61 63 63 65 68 68 67 65 63 63
17 17 17 17 15 15 22 29 26 22 22 22 19 20 19 14 13 10 8 12 13 15 25 29 28 29 31 34 38 39 41 44 47 49 50 50 49 50 50 51 53 54 55 56 57 58 59 60 61 62 64 64 63 64 60 54 53 57 60 59 56 49 44 41 41 41 41 40 37 32 29 31 35 35 35 35 37 42 45 44 43 45 45 45 45 46 50 55 59 61 62 62 63 64 65 63 62
17 18 15 13 11 13 22 30 27 20 23 27 21 16 17 16 17 16 9 8 10 13 23 31 31 31 33 35 37 39 40 43 45 47 49 50 50 50 50 51 52 53 54 55 56 58 59 60 61 62 64 65 65 65 64 59 57 56 55 54 53 49 43 38 36 36 37 38 37 33 30 32 36 37 35 35 35 37 41 42 42 45 47 47 47 47 49 51 53 56 57 58 59 60 62 62 62
13 15 11 13 16 16 22 29 28 22 22 26 23 17 18 19 21 18 9 6 9 8 17 30 33 32 34 36 38 39 40 42 44 47 49 50 51 51 50 51 53 53 54 54 56 58 60 61 61 62 63 64 65 66 67 67 64 61 56 52 49 46 41 37 34 33 33 34 33 31 30 32 34 36 36 35 34 34 37 39 39 41 44 46 47 48 49 50 51 51 52 54 57 59 60 60 61
11 12 11 14 17 17 19 22 24 27 26 25 22 21 22 22 18 13 8 7 8 6 11 25 34 34 34 35 38 39 40 41 44 46 48 49 50 50 50 51 52 53 53 54 57 59 61 62 63 63 64 65 67 68 69 70 70 68 64 60 56 51 44 39 36 34 33 31 30 29 29 29 32 34 35 36 35 34 35 37 37 38 40 43 44 46 47 49 49 49 49 51 54 57 57 56 57
13 13 13 13 13 15 16 15 20 30 37 31 21 22 27 22 12 9 9 8 7 7 7 17 31 35 33 34 36 38 39 40 42 45 47 48 49 49 49 50 51 52 53 55 57 59 61 63 64 65 66 68 69 70 71 71 70 70 69 65 61 55 48 44 41 40 37 32 30 29 28 28 29 32 33 34 33 32 33 35 36 37 37 38 39 40 42 44 45 46 47 49 51 54 54 52 52
13 13 14 13 13 15 17 19 17 19 33 41 32 27 30 24 12 8 10 8 7 7 5 12 29 34 32 33 34 36 38 39 41 43 45 47 48 49 50 51 52 54 55 56 57 59 62 63 65 66 69 70 70 71 71 71 70 69 67 63 59 55 50 46 45 44 41 36 33 30 28 28 29 30 31 30 29 29 29 32 35 35 35 35 35 36 38 40 40 40 42 45 47 50 51 50 49
Wind_Speed
7 10 11 9 9 8 5 4 1 0 1 2 2 1 2 3 2 2 2 4 1 4 9 5 11 14 6 3 11 13 11 6 4 3 5 17 36 37 33 34 32 32 32 31 29 28 28 27 26 25 23 23 22 22 22 21 21 21 21 21 21 21 21 21 20 19 19 19 19 19 19 18 18 17 17 16 16 16 15 15 14 13 13 13 13 13 13 12 12 12 13 12 12 12 12 12 12
9 11 9 8 8 5 3 4 1 0 1 2 2 1 2 1 1 1 2 5 3 4 10 9 12 11 8 12 16 15 9 3 6 13 19 34 40 35 35 34 33 34 33 32 31 29 28 26 26 25 23 22 22 22 21 21 21 21 21 21 21 21 20 20 19 19 19 18 18 18 18 17 17 16 16 16 16 15 15 14 14 14 13 13 13 13 13 13 13 13 13 13 13 12 12 13 13
10 9 8 8 7 3 2 2 0 0 1 2 1 1 2 2 1 2 2 5 5 4 11 13 10 9 10 9 9 9 5 5 19 30 34 41 40 37 37 35 35 34 34 33 31 30 28 26 25 25 23 22 22 22 21 21 21 21 20 20 21 20 20 19 19 19 19 18 17 17 17 16 16 16 16 15 15 15 14 14 14 14 14 14 14 14 14 14 14 13 13 13 13 13 12 13 13
9 6 5 6 6 2 1 1 0 1 1 2 2 1 1 2 3 1 4 6 2 7 15 16 8 8 8 7 10 9 8 12 28 40 40 41 41 41 38 37 36 34 34 33 31 30 28 27 26 26 24 22 23 22 21 21 21 20 20 20 20 20 19 19 18 18 18 18 17 17 16 16 16 16 15 15 15 14 14 14 15 15 15 14 15 14 14 14 14 14 14 13 13 13 12 13 14
8 6 4 2 2 1 1 1 1 1 2 1 1 1 1 3 3 1 2 4 3 10 15 13 7 9 8 6 6 7 13 19 28 41 43 41 41 42 40 38 36 35 34 32 31 30 29 27 27 26 24 23 23 22 21 21 20 20 20 20 20 20 20 19 18 18 18 17 17 17 16 16 16 15 15 15 15 14 14 14 15 15 15 15 15 15 15 15 15 14 14 14 13 13 12 13 14
8 6 5 3 2 1 1 0 2 3 2 2 1 1 2 1 1 1 2 4 1 9 15 13 12 14 10 7 7 11 22 26 30 39 44 43 42 42 41 38 37 36 34 33 31 30 30 28 27 26 24 23 23 22 21 21 20 20 20 20 20 20 19 19 18 17 17 16 16 16 16 16 15 15 15 14 14 14 14 14 15 15 15 15 15 15 15 14 14 14 14 14 13 13 12 13 14
9 7 6 4 3 1 1 1 3 3 2 3 2 1 1 1 1 2 2 3 3 10 16 18 19 17 9 9 12 11 17 27 37 41 44 45 43 42 40 39 37 36 35 33 31 30 30 28 27 25 24 24 23 22 21 20 20 19 19 20 20 20 19 18 18 17 17 16 16 16 16 15 15 15 15 15 15 15 15 14 15 14 15 15 15 15 15 14 14 14 14 14 14 13 13 13 14
8 6 4 3 0 1 1 2 3 2 2 2 1 2 2 3 2 2 2 2 6 12 16 19 20 16 8 10 12 10 15 26 38 42 45 46 44 42 40 39 37 36 34 32 31 30 29 27 26 25 24 24 23 22 21 20 19 19 19 19 19 19 19 18 17 17 17 17 17 16 16 16 15 15 15 16 15 15 15 15 15 15 15 15 15 15 15 15 14 14 13 14 14 13 13 13 13
9 5 2 2 1 1 1 2 2 1 1 1 2 2 4 7 4 1 2 5 2 13 17 15 16 15 11 15 16 16 18 26 37 43 46 45 44 42 40 39 37 37 34 33 32 30 28 27 26 24 25 24 23 22 21 20 19 19 18 18 19 18 18 18 17 17 17 16 16 16 16 16 15 16 16 16 16 15 16 15 15 15 15 15 15 15 15 15 14 14 14 14 14 13 13 12 12
9 5 1 1 1 1 1 2 1 2 2 1 1 4 6 7 4 2 1 5 3 12 16 15 17 20 17 17 16 17 21 30 39 42 43 44 42 41 39 38 37 37 35 34 32 30 28 27 25 24 25 24 23 22 21 20 19 18 18 18 18 18 18 18 17 16 16 16 16 16 15 15 15 16 15 15 16 16 16 16 16 16 15 15 15 15 15 15 14 14 14 14 14 13 13 13 12
6 5 2 1 1 1 1 3 2 3 2 1 3 3 5 6 4 2 2 3 6 13 19 19 19 24 20 14 15 18 26 34 40 42 43 42 40 40 39 37 36 36 35 34 32 29 28 27 25 25 25 24 23 22 21 20 19 18 18 18 18 18 18 17 17 16 16 15 15 15 14 14 15 15 15 15 16 16 17 17 16 16 16 16 15 15 15 14 14 14 14 13 13 13 13 12 12
4 3 2 1 1 1 2 2 3 3 1 2 1 2 6 8 4 2 2 5 10 18 17 16 17 24 16 9 17 23 30 35 40 42 41 40 39 38 37 37 36 35 34 33 32 29 28 28 26 25 25 24 23 22 21 20 19 18 18 18 17 17 17 16 16 16 15 15 15 15 15 15 15 15 14 15 15 16 17 17 17 16 16 15 15 15 14 14 13 13 13 12 12 12 12 12 12
7 3 4 0 2 2 1 2 2 2 1 1 2 3 8 9 5 7 4 9 15 15 12 19 26 24 14 12 23 29 33 36 39 40 39 38 37 37 37 36 35 34 33 33 32 30 29 28 27 26 25 24 23 22 21 20 18 18 18 17 17 17 16 16 16 15 15 15 15 15 16 15 15 14 14 14 15 16 17 17 16 16 15 15 15 14 13 13 12 12 12 12 12 12 11 11 11
12 5 5 0 2 2 1 2 2 2 2 1 3 5 9 5 9 12 9 11 12 14 16 27 32 24 17 17 22 30 34 36 39 38 36 35 36 36 36 35 35 34 33 33 32 30 29 28 27 27 26 25 24 22 21 20 19 18 18 17 17 16 16 15 15 15 15 15 15 15 16 15 15 14 14 13 13 15 16 16 15 15 15 15 15 14 14 13 12 11 11 11 11 11 10 10 11
15 7 4 1 2 2 2 2 2 2 1 2 4 7 9 8 11 11 16 14 9 23 23 26 28 18 20 19 21 35 37 39 39 36 35 34 35 36 36 35 34 34 33 33 31 30 31 29 29 28 27 26 24 23 22 21 19 18 18 17 17 16 15 15 14 14 14 15 15 15 15 15 15 14 13 13 12 13 14 14 14 14 14 14 14 14 14 14 14 12 11 11 11 10 10 10 11
17 9 2 1 2 2 2 3 2 2 2 4 7 10 8 10 13 12 24 19 16 29 22 24 19 10 27 26 29 42 39 41 39 36 37 34 35 35 35 34 34 34 33 33 31 31 31 30 30 29 28 26 25 24 23 22 20 19 18 17 16 16 15 14 14 14 13 14 14 14 14 14 14 14 13 12 12 12 12 12 12 13 13 13 13 13 13 14 14 14 13 12 11 10 10 10 11
16 9 2 3 3 2 2 4 3 4 4 4 8 13 8 7 17 20 23 22 26 27 19 23 16 14 34 30 35 45 39 43 39 37 37 35 36 35 35 35 36 35 34 33 31 32 32 31 31 30 28 26 25 24 23 22 20 19 18 17 16 15 14 13 13 13 13 13 14 14 13 13 13 13 12 12 12 11 11 11 10 11 11 12 12 12 12 12 13 13 13 14 13 12 11 11 12
12 5 4 4 3 4 3 4 4 7 6 5 10 16 10 6 18 22 18 21 25 21 16 20 15 20 33 32 40 42 40 43 39 39 39 38 37 35 36 37 39 37 36 34 32 32 32 32 31 30 29 27 26 24 23 22 21 20 18 17 15 14 13 12 13 13 13 13 13 14 13 12 12 12 12 12 11 10 10 10 10 10 10 10 11 12 11 11 11 11 12 13 14 13 12 12 12
11 3 3 5 4 5 5 5 6 8 9 8 12 17 14 10 16 20 15 17 21 15 15 21 22 24 30 37 42 40 41 42 39 41 40 41 39 37 39 39 40 39 38 37 34 33 33 33 32 31 30 27 26 25 23 22 20 19 18 16 14 13 12 11 12 12 13 12 13 13 12 12 12 12 12 11 10 10 9 10 10 9 8 8 10 11 11 10 10 10 10 12 13 13 13 12 12
11 7 4 6 8 7 8 8 8 11 14 12 11 17 18 17 18 19 14 16 17 14 17 23 26 30 35 40 42 42 43 40 41 41 40 41 39 39 41 41 43 41 40 38 36 34 33 33 32 31 30 28 27 25 24 21 20 19 17 15 13 11 10 10 11 12 12 12 12 12 11 11 12 12 11 10 9 9 9 9 9 8 8 8 8 9 9 10 9 9 10 11 11 11 13 13 12
9 10 6 8 8 6 13 13 11 13 17 14 12 14 17 19 18 17 18 14 10 15 25 29 34 39 40 41 43 44 42 40 42 40 40 41 39 40 40 42 43 41 40 38 37 35 34 33 33 32 30 29 27 25 24 21 19 18 17 15 12 11 9 9 10 11 12 12 12 11 10 10 10 11 11 10 9 8 9 8 8 7 7 7 8 8 7 8 9 9 9 11 10 10 12 13 12
7 10 13 14 8 5 14 14 15 11 12 10 11 11 14 18 14 16 22 12 9 20 30 35 42 45 43 45 44 43 41 42 43 41 41 41 40 40 40 42 41 41 40 38 38 36 34 33 33 32 30 30 27 26 24 21 20 18 16 15 12 11 9 8 9 10 11 11 11 10 9 9 9 10 10 10 9 8 8 8 8 7 6 7 7 7 6 7 9 8 8 10 11 11 12 12 12
8 9 16 21 17 10 12 15 16 11 11 8 7 5 11 15 9 17 23 12 14 27 33 37 44 46 45 47 45 42 43 44 44 43 42 42 42 41 41 43 42 42 41 39 39 36 35 33 32 32 31 30 28 26 24 21 20 18 16 14 12 10 9 9 8 9 10 10 10 9 8 8 9 9 9 9 9 8 7 7 7 7 7 7 7 6 6 7 7 7 7 8 10 12 13 12 12
12 8 12 19 21 18 15 17 17 15 16 10 6 2 8 17 9 14 19 13 21 29 34 40 42 44 45 46 45 43 44 45 44 43 42 41 42 41 41 42 42 42 41 40 38 36 35 34 33 33 31 30 29 27 25 23 20 18 16 14 12 10 9 9 8 9 9 9 10 9 9 8 8 9 9 9 8 8 8 8 8 7 7 7 7 6 6 6 6 7 7 7 8 11 13 13 13
13 12 14 15 18 22 22 20 18 19 18 14 13 6 11 22 16 14 16 17 26 32 36 40 42 44 44 45 45 41 42 44 43 41 40 39 39 40 40 40 42 41 41 41 39 37 36 34 34 33 32 30 29 27 25 23 21 19 17 15 13 11 10 10 9 9 9 10 10 9 10 8 7 8 8 9 8 7 7 8 7 7 6 7 7 6 6 6 6 7 7 7 8 9 10 11 12
12 16 18 16 15 21 24 20 18 20 19 17 15 8 12 23 17 13 18 23 30 35 38 41 43 43 43 44 44 41 41 42 43 42 40 39 38 38 39 40 41 42 41 41 39 38 36 35 34 33 32 31 29 27 25 24 21 20 18 16 14 12 11 11 10 10 10 10 9 9 9 8 7 7 8 8 8 7 7 7 6 6 6 6 6 6 5 5 6 7 7 8 8 8 8 9 12
14 18 19 19 18 19 23 21 20 22 18 18 15 7 13 22 15 7 17 28 34 39 39 41 43 42 42 42 43 43 41 42 42 42 41 41 40 39 39 39 40 41 40 41 39 38 37 36 34 34 32 31 30 28 26 24 22 20 18 17 16 13 12 12 12 11 10 10 9 8 9 9 8 8 8 8 8 7 6 6 5 6 6 6 6 6 5 5 6 6 6 7 7 7 7 9 11
18 18 14 17 19 17 19 18 20 19 13 19 18 7 7 14 9 8 22 34 37 40 40 41 42 40 41 41 43 44 42 42 41 41 42 43 43 41 40 40 39 39 40 41 40 38 37 36 35 34 33 32 31 28 26 24 22 20 19 19 17 15 14 14 12 11 11 10 10 9 9 10 8 8 8 7 7 6 6 5 5 6 5 5 5 6 5 5 6 5 6 6 6 7 8 10 11
21 17 10 10 13 12 16 17 20 17 9 19 18 6 5 8 7 14 30 37 39 40 39 39 39 39 40 39 41 43 42 42 41 42 42 43 44 43 41 41 40 39 39 40 40 39 38 37 36 35 33 32 31 29 27 25 23 20 19 20 18 17 16 14 13 11 11 10 11 11 10 10 8 8 8 7 6 6 6 6 5 6 5 5 5 5 5 5 6 6 6 6 7 8 9 10 12
15 12 7 7 7 7 13 18 20 17 12 21 17 2 6 7 9 22 33 38 38 36 36 37 37 37 39 39 39 40 41 42 43 43 42 42 42 43 42 40 40 39 38 38 40 40 38 38 37 36 35 33 32 30 28 26 24 21 20 20 19 18 16 14 13 12 11 11 12 12 11 10 9 8 8 7 6 6 6 5 5 6 5 5 5 5 6 6 5 6 7 8 8 9 8 9 10
6 5 5 5 4 5 10 16 17 13 14 24 18 3 6 6 12 26 35 40 38 33 34 35 35 36 38 38 38 38 39 42 44 42 41 41 41 42 42 40 40 39 38 38 38 39 39 38 37 36 36 34 33 31 30 28 24 22 21 20 19 18 16 14 13 12 12 12 12 12 12 11 10 9 8 7 6 6 6 5 5 5 5 5 4 4 5 5 6 6 7 7 8 9 8 7 7
2 4 5 3 5 5 7 13 17 13 12 20 16 4 5 8 16 30 37 39 38 33 33 35 35 36 37 38 39 38 37 40 42 40 39 40 41 41 41 40 40 40 39 38 37 38 38 37 35 36 36 35 34 32 30 28 24 23 21 19 19 18 17 16 15 14 13 13 13 12 11 11 11 10 9 8 7 7 7 6 5 5 5 4 4 4 4 5 5 6 6 7 9 10 9 7 6
2 4 4 4 5 4 5 7 15 17 11 13 14 5 4 8 18 31 36 37 36 32 32 35 36 37 37 37 39 39 37 37 40 41 38 38 41 41 41 41 41 41 41 39 37 38 37 36 34 34 36 36 35 33 30 28 25 24 22 21 20 19 18 18 18 16 15 14 14 12 11 10 10 10 10 9 8 8 7 6 5 6 5 3 3 3 3 3 3 4 5 7 9 11 11 9 8
4 3 3 5 5 5 5 4 9 15 10 10 13 9 5 10 20 29 35 37 35 31 31 35 36 36 37 37 39 39 38 38 40 43 41 38 41 42 41 41 41 41 41 40 39 38 38 36 34 33 34 35 35 34 31 28 26 25 24 22 21 21 20 19 19 18 16 15 14 13 12 11 11 11 11 11 10 8 7 7 6 5 5 3 4 3 2 3 3 4 6 8 9 11 11 11 10
4 4 3 5 5 5 7 6 6 10 10 11 12 11 8 13 23 28 34 39 33 31 33 35 36 36 37 37 39 39 39 41 42 45 44 41 41 42 42 41 41 41 41 41 39 38 38 37 35 33 32 34 35 34 32 29 28 27 26 24 23 23 22 20 21 19 17 15 14 13 13 13 13 12 12 12 11 10 9 8 7 6 5 4 4 4 4 4 4 5 7 8 10 10 10 11 11
5 6 4 5 6 5 7 9 8 9 10 11 11 13 10 14 23 25 31 38 33 32 33 33 35 35 36 37 39 40 40 42 44 45 45 43 43 42 42 43 42 40 40 41 40 39 39 39 37 35 33 34 35 35 33 31 29 29 29 28 26 25 23 22 22 21 18 16 14 13 13 15 15 13 12 13 13 11 10 9 8 7 6 5 5 4 4 5 5 6 6 8 10 11 9 10 11
6 5 6 7 7 6 8 11 10 8 8 10 13 13 11 15 22 24 31 34 28 28 30 30 33 34 36 38 39 41 42 44 44 45 45 44 44 43 43 44 42 41 40 41 42 41 41 40 39 38 36 35 36 36 36 34 33 32 32 31 30 28 25 24 24 23 20 17 15 13 13 14 15 15 13 14 14 12 12 11 10 9 7 7 5 5 5 6 7 7 7 8 10 12 11 9 9
8 7 7 7 7 8 11 14 10 7 7 10 13 12 12 15 17 22 30 27 22 27 29 29 34 35 37 40 40 43 43 42 41 43 45 45 44 43 43 44 44 44 43 42 42 42 42 41 40 39 37 37 38 38 38 37 36 35 34 32 30 29 27 25 25 24 21 19 17 15 13 13 15 15 15 15 15 13 13 13 11 9 8 7 7 6 6 7 8 7 7 9 11 13 13 11 8
8 7 7 7 7 7 9 13 11 8 7 8 12 13 13 13 15 21 27 24 25 36 37 36 38 36 37 41 42 42 41 39 40 42 45 46 46 44 43 45 46 46 45 43 41 41 41 42 42 40 38 38 39 39 39 38 36 35 33 31 29 28 27 25 24 24 22 21 19 17 14 13 14 15 15 15 16 15 14 13 12 10 9 8 8 7 7 8 8 8 8 10 12 13 13 11 7
8 8 7 7 8 6 7 9 8 7 7 8 13 13 11 9 12 19 29 32 32 39 43 42 43 43 43 46 46 45 43 42 43 44 45 46 48 46 45 45 46 47 46 45 43 42 42 42 43 43 41 39 39 39 40 39 36 35 33 31 28 27 25 24 23 23 24 23 21 18 16 15 14 14 15 15 16 16 14 13 12 11 10 8 8 8 8 8 9 8 8 10 12 13 13 11 6
11 12 10 8 11 11 11 9 5 5 7 8 11 10 7 7 12 14 23 29 30 34 38 37 41 45 46 46 46 47 48 47 47 47 46 46 49 50 48 46 46 47 48 47 46 44 43 42 44 44 42 40 39 39 40 40 37 35 34 32 29 28 26 24 25 26 26 26 24 22 20 17 15 15 15 15 16 16 15 13 12 12 11 9 9 9 9 8 8 8 9 10 11 12 12 12 9
10 15 15 13 13 14 13 10 5 4 6 7 10 9 5 6 15 15 15 16 19 25 28 29 36 39 39 41 43 47 49 49 50 52 50 48 49 50 50 49 48 48 49 49 47 46 43 43 44 45 43 41 40 38 39 41 40 38 37 35 33 32 30 29 29 29 29 28 26 24 22 19 17 17 17 16 16 16 15 14 13 12 11 10 9 9 10 10 9 9 10 10 11 11 11 12 11
8 13 16 16 15 15 14 8 5 4 5 6 9 10 5 5 12 17 17 16 18 21 21 25 34 36 37 40 43 45 47 48 50 52 51 50 49 51 52 52 51 51 51 50 48 47 45 43 44 45 45 43 41 39 39 42 42 40 39 38 36 35 34 32 31 30 29 28 27 25 23 21 19 18 18 18 17 16 16 15 14 13 12 11 10 10 11 10 10 10 11 10 10 12 13 13 12
8 9 12 16 16 18 16 9 5 5 4 5 6 9 7 5 10 16 20 20 19 20 19 21 29 35 40 42 43 46 48 49 50 50 51 51 51 53 54 55 54 53 52 51 50 49 47 45 44 45 45 45 43 40 40 42 43 43 41 40 38 36 35 32 31 31 30 29 27 26 24 22 20 19 18 18 18 17 17 16 15 14 13 12 11 11 10 10 11 11 11 11 12 13 14 14 13
7 7 10 14 16 17 15 9 7 6 5 6 5 6 6 5 7 13 19 20 18 19 21 20 24 34 40 42 44 48 50 51 51 52 53 53 53 55 56 56 55 53 53 52 51 49 48 46 45 45 46 45 44 43 41 41 42 43 42 41 40 37 35 33 31 30 30 30 29 27 25 24 22 20 18 18 19 19 18 17 16 15 14 14 13 12 11 11 12 12 12 12 13 13 12 14 14
8 8 9 11 14 15 12 8 7 6 6 7 7 6 6 5 4 9 14 17 17 18 19 19 24 35 40 41 44 47 48 49 51 53 55 55 56 56 55 55 53 53 53 53 52 50 48 47 47 46 47 47 46 45 44 42 41 42 43 42 40 38 36 34 33 31 30 31 31 29 27 26 24 22 19 18 20 21 19 18 17 16 15 14 14 12 12 13 13 12 12 12 13 12 11 12 13
9 8 9 8 9 9 7 6 5 5 6 9 9 8 7 6 4 8 12 16 19 17 15 16 22 31 38 42 45 47 48 49 52 53 54 55 54 53 53 53 53 52 52 53 53 51 50 49 48 48 48 49 48 47 46 44 42 41 42 42 41 40 38 36 35 33 31 31 32 32 30 28 26 24 21 19 20 21 21 19 18 17 16 15 15 14 14 13 13 13 12 13 13 13 12 12 11
10 7 8 7 5 4 4 3 4 6 6 7 9 10 8 6 5 6 11 18 23 21 18 19 19 26 37 42 45 48 49 50 51 51 51 52 50 49 51 52 53 52 52 53 53 53 51 50 49 49 49 49 49 48 48 46 45 42 41 42 41 40 39 37 36 35 34 33 33 32 31 30 28 26 24 21 21 22 21 21 20 19 17 17 17 16 15 14 13 13 14 14 14 14 14 13 11
11 7 6 6 4 3 5 4 3 5 6 6 8 8 6 6 6 7 10 14 18 19 22 25 24 29 37 41 43 46 49 50 50 49 50 50 49 49 51 53 53 53 53 54 54 53 53 51 50 50 50 49 49 49 49 48 46 44 42 42 42 41 40 38 36 35 35 34 32 32 31 30 29 28 27 25 23 23 22 22 21 21 19 18 17 17 16 15 14 14 15 15 14 15 15 15 12
11 9 7 6 5 5 6 4 3 4 6 6 7 6 4 5 6 8 10 10 13 19 27 34 37 39 42 43 45 46 48 49 49 49 49 51 52 51 52 54 54 55 55 55 54 54 53 53 52 51 50 49 48 48 49 49 48 46 44 43 42 41 41 40 38 36 35 34 33 31 29 28 28 27 26 25 24 23 23 22 22 21 21 19 18 18 17 16 16 15 16 15 15 15 15 15 14
11 10 7 7 6 6 5 4 4 4 4 5 5 5 5 5 5 8 11 11 14 23 32 40 44 46 47 46 45 45 45 46 47 49 50 53 56 54 52 54 55 56 55 54 54 54 54 54 53 52 51 49 49 48 48 49 48 47 46 44 43 42 41 41 40 38 36 35 33 31 29 27 27 26 24 24 23 23 23 22 22 22 21 20 19 18 18 18 18 17 17 16 16 15 15 16 15
10 9 7 8 6 5 3 4 4 4 2 5 4 4 5 5 5 5 5 8 10 19 28 33 35 39 41 40 40 42 43 45 46 49 51 53 56 55 54 54 55 55 55 54 54 54 55 54 53 53 51 49 49 49 48 47 46 46 46 46 44 42 41 41 41 40 38 36 34 32 30 28 28 26 24 23 23 23 24 23 22 22 22 21 20 19 19 19 19 19 18 18 17 16 16 16 16
6 9 9 8 7 6 3 4 2 5 4 5 3 3 4 2 5 7 5 7 6 10 18 23 28 34 35 34 38 41 42 46 48 50 52 54 55 56 55 56 56 55 55 55 55 55 55 55 54 53 52 50 50 49 48 46 45 46 46 46 45 43 42 41 41 41 39 38 36 34 32 30 29 27 25 24 22 22 23 22 22 21 21 22 21 20 20 19 19 20 19 19 18 17 17 16 16
6 10 10 6 5 4 4 2 2 3 5 4 4 6 4 2 5 7 7 8 8 7 13 18 25 31 32 34 39 43 44 48 51 52 53 54 55 56 56 56 57 57 57 56 56 55 55 54 53 53 52 52 51 50 49 47 47 47 46 45 45 44 43 41 40 40 39 39 38 36 34 32 30 29 27 26 24 23 23 22 22 21 21 22 23 22 21 20 20 20 20 19 19 18 18 17 17
10 8 9 8 5 6 6 4 4 5 4 3 4 6 5 5 5 5 8 11 12 10 11 17 21 24 28 34 40 44 46 47 49 50 50 52 54 56 56 56 56 57 57 57 56 55 54 54 53 52 52 51 50 50 49 49 48 48 47 46 45 44 43 41 39 39 39 40 39 37 35 34 32 30 29 28 26 25 25 24 23 22 22 22 23 24 23 23 22 22 21 21 20 20 20 19 19
10 7 8 8 6 6 6 4 4 4 4 4 3 4 5 5 6 8 12 14 14 12 10 14 19 24 30 35 39 43 45 46 49 50 51 53 54 56 57 57 57 58 58 57 55 54 54 54 53 52 51 50 50 50 50 50 49 49 48 48 47 46 44 42 40 40 40 40 39 38 36 35 33 32 31 30 28 27 26 25 24 24 23 23 23 24 25 25 25 24 23 23 22 22 22 21 20
8 7 8 8 4 3 4 3 3 5 3 4 4 4 6 6 7 12 16 15 14 15 13 12 18 29 38 41 42 44 45 47 49 51 51 52 53 54 55 55 56 57 57 55 54 54 53 53 52 52 51 51 51 50 50 50 49 49 49 49 49 48 46 44 43 42 41 40 39 39 38 36 35 34 33 32 30 28 27 26 25 25 24 24 24 24 24 25 26 26 25 25 24 24 24 23 22
8 6 7 9 5 5 6 5 4 4 4 4 5 5 7 7 8 11 15 15 13 16 15 10 18 33 42 45 47 48 48 48 50 50 49 49 51 52 53 53 53 53 54 53 53 53 52 52 52 51 51 51 51 50 49 49 48 48 49 49 49 48 47 45 44 44 43 42 41 40 39 38 37 35 34 33 31 29 28 27 26 26 25 25 25 25 25 25 26 26 26 26 26 26 26 25 25
Wind_Direction
153 155 149 141 149 144 146 176 165 348 203 284 242 238 236 205 135 155 138 136 49 226 203 159 138 150 161 145 130 102 80 131 163 152 149 147 152 153 154 154 152 147 144 143 142 144 151 153 150 145 141 140 138 137 134 129 127 125 126 125 125 123 121 121 120 119 118 118 118 118 117 117 117 119 120 118 116 113 112 111 111 113 115 115 115 115 115 114 112 112 110 108 106 102 99 99 100
159 157 147 136 150 136 147 182 158 10 223 287 254 165 284 333 66 242 147 175 253 219 192 168 153 153 136 126 124 110 67 25 146 128 127 144 151 153 154 153 152 148 146 144 144 146 149 154 153 147 144 143 140 137 134 130 127 126 126 125 124 122 122 121 120 120 119 119 118 118 116 117 118 118 117 114 113 112 111 110 110 111 112 114 115 116 117 115 114 112 110 109 108 103 99 97 100
167 158 139 131 146 149 174 166 134 93 315 292 301 250 292 342 334 299 216 228 260 194 152 148 159 153 133 122 122 116 81 87 132 129 131 148 153 153 155 152 152 149 147 146 146 148 149 154 154 149 148 145 142 138 134 130 128 127 126 125 124 123 122 121 120 120 120 121 119 119 119 119 119 115 112 111 111 110 110 109 109 109 109 111 113 115 116 115 114 111 109 109 107 103 98 97 101
171 161 138 124 138 177 185 109 253 159 296 265 285 237 183 268 261 265 248 269 245 146 138 136 133 150 147 121 115 100 108 126 132 135 141 154 154 152 154 152 152 150 148 147 147 149 151 154 154 152 150 146 142 139 134 130 130 128 126 125 125 124 123 121 120 119 119 120 121 121 120 119 116 114 112 110 109 109 109 109 108 106 105 107 110 111 112 113 111 109 107 108 107 104 100 99 103
166 158 149 123 122 173 151 91 217 212 265 240 254 224 195 248 258 273 273 285 134 132 144 141 114 136 137 109 120 117 136 138 137 142 147 155 153 151 153 153 153 151 150 148 149 151 152 154 154 154 150 147 143 139 135 133 132 129 128 126 125 125 123 123 122 121 121 121 122 121 120 119 116 115 113 111 110 108 108 107 106 104 103 103 105 107 109 111 110 108 106 106 107 106 102 103 104
166 157 163 195 247 233 120 268 234 243 257 195 197 264 241 269 308 1 5 296 185 137 138 124 112 120 103 73 91 126 143 144 144 147 149 153 152 151 153 154 154 152 152 150 151 153 151 152 153 153 150 147 144 141 138 135 134 130 129 126 125 124 123 123 122 123 123 123 123 121 121 119 118 116 114 112 111 109 108 106 106 104 102 100 101 103 106 110 110 107 105 105 106 107 104 103 104
163 159 175 201 254 230 214 249 246 256 232 208 199 191 182 82 28 42 355 285 110 124 124 116 121 110 86 96 94 117 149 148 146 149 150 151 152 153 153 154 155 153 154 151 151 153 151 152 154 153 150 148 146 143 140 138 136 133 130 127 125 123 123 122 122 122 122 123 123 122 121 120 118 116 114 113 111 110 109 108 107 105 102 100 100 102 105 107 108 108 106 106 106 108 107 105 105
162 166 176 184 256 202 229 250 255 259 206 221 177 143 135 145 144 56 276 244 107 118 119 122 123 98 90 114 98 125 149 147 147 150 150 150 153 153 154 155 155 154 154 153 152 153 152 153 154 153 150 149 148 145 142 140 137 135 132 128 126 124 123 122 121 121 120 121 121 121 120 119 118 117 116 114 112 110 108 108 106 104 102 100 101 102 104 106 106 107 107 106 106 106 107 107 107
170 172 158 167 105 254 255 268 259 293 246 187 167 145 126 156 160 135 238 310 67 122 121 132 119 97 105 102 103 132 143 150 149 149 150 152 154 154 156 157 156 156 155 154 154 154 154 155 154 153 151 150 148 145 143 142 139 137 134 131 128 125 123 121 120 120 120 120 120 120 119 119 119 117 117 115 112 109 108 107 105 103 102 101 101 101 103 105 106 106 107 106 107 106 106 107 108
173 187 192 162 83 342 299 308 254 270 247 179 265 141 123 154 165 197 104 325 252 122 118 130 108 107 115 100 109 139 147 151 148 149 153 153 154 155 157 158 158 158 156 156 156 157 156 154 154 154 152 150 148 146 145 142 140 139 137 133 129 126 123 121 121 119 119 119 120 121 121 121 119 118 117 116 113 111 109 106 104 102 101 101 100 101 102 103 104 104 105 106 108 108 107 108 107
162 196 217 95 59 334 296 321 288 266 202 68 330 138 135 148 144 228 95 279 212 122 119 118 102 112 111 97 113 144 153 151 150 151 154 155 156 158 157 159 161 160 158 157 157 158 156 153 155 157 153 151 148 146 145 142 142 141 138 135 131 127 123 122 120 118 118 118 119 120 122 120 119 120 119 118 116 112 109 104 102 99 98 99 100 101 101 101 100 99 99 101 103 105 105 106 106
169 190 161 102 162 213 217 286 299 287 169 121 266 164 161 144 123 189 153 236 160 127 134 125 124 125 105 95 125 146 154 152 153 153 155 157 158 159 159 161 163 162 160 158 158 158 156 156 158 159 155 152 150 147 146 144 144 142 138 136 132 127 122 121 118 117 117 116 117 118 119 118 119 121 121 119 116 112 107 104 101 99 99 99 100 100 102 103 101 100 98 99 99 100 101 101 105
205 174 135 129 200 189 242 235 271 279 282 159 175 175 164 144 171 189 184 212 158 137 157 141 137 126 104 119 134 147 152 154 156 155 156 158 161 161 163 164 164 164 161 160 160 160 159 160 161 160 157 154 152 149 148 146 145 142 139 137 132 126 121 120 118 118 118 117 117 117 117 116 118 121 121 118 114 112 106 103 101 100 101 99 99 99 101 103 103 103 101 101 99 98 98 99 103
205 190 156 321 245 215 244 206 220 217 286 236 150 154 157 169 212 191 183 202 170 149 146 143 140 119 116 129 139 153 153 158 157 155 158 159 163 164 166 165 164 165 163 164 163 162 162 162 163 161 159 158 155 152 151 148 145 142 139 136 129 124 121 120 121 120 120 119 116 116 117 117 118 119 119 118 114 111 106 104 103 101 101 99 97 96 97 99 101 102 101 99 96 95 96 97 101
205 199 155 305 295 263 231 193 186 166 247 195 158 138 149 222 218 183 197 212 160 148 139 143 145 123 146 153 156 162 158 160 158 156 159 160 164 167 169 166 166 168 166 167 166 166 165 165 165 162 161 161 159 156 154 151 147 143 139 134 127 123 123 123 124 124 124 121 119 117 118 119 119 119 118 119 116 111 108 107 106 103 102 101 98 96 96 99 101 101 100 96 94 94 96 98 99
212 206 111 289 248 260 231 186 148 136 223 194 167 151 155 221 209 200 212 203 139 146 146 152 162 151 161 162 160 161 160 161 158 158 159 160 165 169 170 168 170 170 169 170 170 171 168 168 167 164 164 164 163 160 157 154 150 145 140 135 127 124 124 127 129 129 129 125 122 120 120 122 121 121 120 119 118 117 116 113 110 106 104 105 102 99 100 102 103 103 104 104 102 100 99 102 101
214 207 211 264 229 229 216 190 169 143 190 198 174 174 171 200 199 209 204 170 144 154 163 165 177 165 158 158 158 158 160 160 158 159 161 161 165 170 171 171 172 171 173 173 174 175 172 171 169 167 167 167 167 164 161 156 152 149 142 137 130 125 125 131 136 135 135 131 125 122 122 123 120 121 121 118 120 123 124 122 117 111 106 108 108 105 105 107 109 108 109 111 110 107 105 105 105
211 184 211 236 219 225 212 193 181 148 168 195 188 186 181 183 189 193 174 148 152 156 156 158 152 148 153 154 154 156 159 159 158 160 163 165 167 170 171 173 175 174 175 175 177 178 176 174 171 170 169 170 170 169 165 159 156 152 145 141 134 130 128 131 140 140 140 136 126 123 124 124 122 122 119 117 120 125 129 130 126 119 112 110 113 110 107 110 115 116 112 113 110 107 107 103 104
212 175 205 228 211 224 221 191 172 148 162 184 188 184 188 211 189 174 158 152 158 145 136 138 128 133 145 151 153 156 158 158 162 164 166 168 169 172 173 175 176 177 177 177 179 179 180 177 174 174 172 173 174 173 171 166 161 156 150 146 140 137 133 133 139 143 143 137 128 126 128 127 127 125 118 116 120 125 131 136 135 129 116 109 117 118 114 111 111 113 113 114 111 109 109 105 101
217 210 214 236 225 236 252 221 181 147 150 166 186 187 197 215 193 169 159 161 161 148 145 139 133 139 147 153 156 157 158 162 166 167 169 170 173 175 175 176 178 179 180 179 180 181 183 180 177 177 175 176 177 177 176 173 166 161 157 151 148 145 141 139 138 142 143 137 132 132 133 130 128 126 123 121 121 125 130 139 141 134 122 113 122 127 120 116 117 118 117 120 118 116 115 112 107
209 212 215 236 220 221 256 227 173 151 155 165 176 184 203 210 197 175 162 164 168 158 158 153 148 148 152 157 159 160 162 165 169 170 172 173 174 177 178 179 180 181 181 182 183 184 185 183 181 179 180 180 180 181 181 178 173 168 164 159 157 156 154 149 141 142 142 139 137 136 136 130 127 127 129 129 123 124 127 136 139 134 125 120 127 131 121 115 124 129 121 122 122 127 126 119 117
216 226 223 235 217 201 252 210 160 163 170 166 162 172 201 203 208 185 169 175 176 163 162 158 155 155 157 160 161 163 166 169 171 173 173 175 175 176 179 180 181 183 183 185 186 186 186 186 184 183 184 184 184 186 185 183 181 177 171 167 166 166 169 161 147 146 144 143 142 141 139 131 129 126 127 130 123 121 126 135 139 135 127 124 133 133 126 116 120 125 119 120 122 132 135 128 126
231 245 230 234 226 223 247 193 163 177 186 178 159 178 192 186 209 187 177 188 171 163 165 162 159 159 160 161 162 164 170 173 174 176 176 177 177 178 180 181 183 185 186 188 189 189 188 189 187 187 188 188 188 189 190 189 188 186 179 175 175 175 180 171 157 154 150 148 145 145 141 132 133 130 133 133 123 120 126 136 139 141 134 129 137 138 138 129 120 120 120 125 124 134 144 141 139
228 249 240 237 229 228 234 200 181 184 192 188 163 241 189 173 183 180 181 182 164 162 164 163 161 159 160 162 165 167 172 175 176 178 178 177 179 182 182 184 185 186 188 190 191 191 191 191 190 191 192 192 192 192 194 195 193 193 188 185 182 185 187 176 168 162 154 150 148 152 150 142 139 137 142 136 125 122 126 136 139 142 141 137 143 144 142 135 127 122 121 128 123 134 151 151 144
230 239 244 244 232 225 227 214 193 187 195 187 174 199 196 181 174 174 183 169 159 160 159 161 160 160 162 165 167 169 172 176 177 177 177 178 180 182 184 186 186 188 190 191 192 192 193 193 192 195 196 196 196 194 196 198 197 197 197 194 188 192 189 178 178 168 156 155 155 161 162 158 147 144 147 138 128 124 125 132 136 136 138 144 148 145 142 137 137 131 129 138 132 131 148 154 147
228 234 241 244 237 223 219 213 194 193 198 188 180 192 204 190 172 174 182 160 157 159 156 160 161 162 166 168 170 170 172 175 177 178 179 179 180 182 185 187 188 191 192 192 194 193 194 195 195 198 199 199 199 196 198 198 198 201 201 197 191 194 190 181 180 168 159 162 162 165 170 168 157 152 151 140 132 129 126 127 134 135 130 134 140 144 141 137 141 139 141 149 144 134 139 151 150
232 237 242 242 243 225 208 204 197 198 204 198 189 185 201 187 163 176 176 156 154 156 155 160 162 165 169 171 173 173 173 176 178 179 180 181 182 184 186 188 191 192 193 195 196 195 195 196 197 200 201 202 202 200 199 197 198 202 201 197 192 195 193 182 176 166 164 170 170 170 173 172 164 156 151 141 136 135 133 129 135 139 132 128 130 139 138 139 152 148 147 147 143 136 135 150 153
246 248 252 247 248 230 202 200 197 193 207 208 191 157 186 184 172 181 164 156 157 155 156 162 163 166 170 173 176 177 177 177 178 179 181 184 186 186 188 191 192 193 195 197 198 196 196 197 198 202 204 204 203 201 201 199 199 200 199 197 195 197 193 178 172 164 166 177 179 178 178 176 171 162 155 145 139 140 146 144 143 141 137 134 132 143 143 144 157 151 148 144 138 137 136 150 157
248 250 263 260 257 239 201 196 196 190 200 194 174 122 183 197 201 175 160 158 158 157 159 164 166 168 170 173 177 180 182 180 181 183 185 188 189 189 191 192 193 194 197 199 200 198 198 199 199 203 205 205 204 201 201 201 200 199 199 198 198 200 190 176 173 167 169 184 186 184 186 184 181 172 163 156 146 147 163 163 155 150 145 140 133 139 139 133 141 144 144 135 131 140 139 145 151
248 242 248 255 264 254 204 194 194 193 194 173 154 142 211 194 181 165 160 159 157 158 162 165 168 171 173 175 176 181 184 184 186 188 190 191 192 192 192 194 194 195 196 198 200 200 200 200 201 204 206 207 205 202 201 201 201 199 200 199 198 200 190 178 178 174 177 189 193 192 193 194 193 183 168 164 160 160 177 175 166 166 156 149 136 129 133 132 136 138 135 123 123 139 146 145 146
254 246 247 222 233 266 211 194 187 194 199 170 154 211 214 170 165 160 159 161 159 161 165 166 169 173 177 180 180 181 184 186 188 189 191 193 193 193 194 195 194 195 196 197 199 199 200 201 202 205 206 207 206 203 201 201 202 200 202 198 196 200 193 185 186 185 185 190 198 197 195 200 201 193 179 173 168 169 187 187 175 176 162 150 137 128 137 143 143 135 128 122 121 130 141 145 148
253 240 263 217 202 263 228 194 184 192 202 172 163 209 192 167 165 161 162 164 163 164 167 169 171 175 178 181 185 186 185 184 185 186 189 193 194 193 195 195 195 196 197 198 198 197 199 201 202 203 205 205 205 206 202 200 200 201 203 197 194 201 196 193 195 192 190 192 199 200 199 203 204 204 200 193 184 181 195 196 181 179 170 151 134 136 149 154 146 131 128 132 128 124 124 126 145
242 207 244 243 204 228 240 210 193 192 193 177 179 194 163 171 170 165 166 167 166 167 170 172 173 176 178 179 183 188 189 187 187 187 189 193 194 194 196 196 197 197 199 200 199 199 200 201 202 203 204 203 204 207 204 200 199 201 203 198 196 202 200 199 200 197 196 196 200 202 203 206 209 214 213 209 202 194 201 203 191 183 181 177 165 158 156 156 145 136 146 151 141 127 118 109 121
247 209 225 246 218 207 218 250 217 196 189 188 194 203 170 159 170 171 171 171 170 170 173 175 176 177 178 180 183 187 190 189 191 193 194 195 196 197 198 198 198 199 200 202 202 202 202 202 203 202 203 203 204 207 205 200 199 199 202 201 200 204 204 204 205 202 201 200 201 203 205 211 216 218 216 215 211 205 206 210 208 197 192 194 192 185 170 166 166 165 166 163 150 133 124 117 115
219 213 220 249 234 223 216 224 224 200 202 200 195 211 199 158 167 176 176 174 172 175 176 176 177 178 178 181 184 187 190 191 193 195 196 196 197 198 199 200 200 200 202 203 203 203 203 203 204 203 202 201 203 205 205 201 198 198 199 202 203 206 207 205 207 206 204 204 204 206 210 215 219 218 214 214 213 209 206 208 213 209 197 189 195 199 191 188 185 174 168 166 158 145 138 136 132
208 211 218 245 236 235 231 230 220 193 204 209 198 208 204 164 167 176 179 178 176 177 177 177 178 179 180 182 185 188 191 194 195 195 195 197 198 199 200 200 201 203 204 204 203 203 204 205 205 205 202 200 200 202 203 201 199 197 198 202 204 207 207 203 206 208 207 207 205 207 211 214 219 215 209 211 213 209 206 209 211 208 197 190 199 203 196 195 191 177 169 171 167 158 154 150 146
236 230 228 242 242 242 237 240 230 188 192 212 208 210 203 174 169 174 178 178 177 176 176 177 179 179 181 184 186 189 192 196 196 196 196 196 197 199 199 200 202 204 205 205 204 203 204 205 206 206 203 201 200 199 201 202 200 198 199 202 204 206 205 202 203 206 207 208 210 213 210 210 216 214 207 209 212 210 207 209 208 206 204 198 198 196 195 197 194 182 174 177 172 166 167 163 154
240 241 239 244 241 244 239 239 233 189 192 216 209 212 213 191 174 173 175 176 178 179 176 177 179 180 182 186 188 190 193 195 195 196 196 196 197 198 199 200 201 202 202 204 205 204 205 206 207 208 204 201 201 201 201 202 203 202 202 203 204 205 205 202 202 204 205 208 214 219 212 206 211 213 210 208 211 211 208 211 209 206 207 202 198 195 193 193 191 183 179 176 169 170 177 176 173
235 242 244 245 240 253 258 250 240 206 201 215 203 207 220 203 174 169 174 178 181 181 181 180 179 179 182 186 188 190 191 192 193 195 196 198 198 197 198 199 201 202 201 203 205 205 205 205 207 209 206 203 202 203 203 204 205 206 206 206 205 204 205 204 203 202 204 208 212 218 216 209 208 212 212 208 210 212 210 213 212 208 208 205 202 200 195 193 191 187 182 174 167 172 176 172 179
232 235 233 243 240 240 256 254 248 226 218 212 198 202 219 200 168 171 178 181 182 183 184 182 180 181 184 187 188 188 189 191 192 193 194 197 197 197 197 197 199 201 201 202 203 204 205 206 207 209 209 206 203 203 205 206 206 206 208 209 208 207 205 205 202 199 204 209 212 216 219 216 211 211 213 210 210 213 213 213 213 211 210 209 205 205 203 200 198 195 188 178 175 177 172 163 168
228 233 230 236 239 234 240 252 277 278 256 225 193 198 226 185 165 177 181 180 182 183 184 184 184 185 185 186 187 188 190 191 191 192 194 196 197 198 198 197 198 199 201 202 202 203 205 206 207 208 209 208 205 204 205 206 205 205 206 206 207 207 205 204 200 198 202 207 211 215 218 218 214 211 213 213 212 215 216 213 212 210 211 214 210 207 208 204 204 203 197 191 189 187 178 171 176
223 231 230 231 240 243 244 252 271 291 283 244 188 187 244 192 172 178 180 180 183 183 183 186 188 187 184 185 188 189 191 192 192 193 194 196 197 198 199 199 199 200 202 203 204 204 205 206 206 208 209 209 208 206 206 205 205 206 205 204 205 204 204 204 203 203 204 206 210 213 215 218 218 214 214 215 214 215 218 217 214 210 210 215 212 207 205 205 207 206 202 200 193 189 188 184 184
221 223 226 231 240 250 252 254 245 228 261 251 197 184 208 210 184 180 177 179 184 185 187 188 188 186 185 187 188 189 191 192 193 194 194 195 197 197 199 200 201 201 203 204 204 205 206 206 206 207 209 211 210 208 207 206 206 207 208 208 208 208 208 208 208 209 209 209 211 213 215 218 220 218 215 216 215 214 217 219 216 212 211 213 211 207 205 205 208 207 206 204 193 184 186 190 191
223 203 213 231 238 247 251 254 249 236 265 281 232 196 185 196 196 185 180 181 184 188 192 191 187 186 188 190 190 190 191 192 192 193 193 194 197 198 200 201 202 202 202 202 203 204 206 206 206 207 208 210 210 208 207 208 208 209 210 211 212 212 213 212 210 209 210 212 212 214 216 218 220 220 217 216 214 213 216 219 218 215 211 210 210 209 209 210 209 210 207 201 199 191 180 185 197
225 185 200 225 235 245 249 249 256 255 275 295 264 213 202 217 202 183 181 183 185 191 195 194 189 188 190 191 190 191 192 192 192 193 194 195 197 199 201 202 202 202 201 202 203 204 205 206 207 207 208 210 211 210 209 210 210 211 211 212 213 214 216 215 212 210 210 212 213 216 218 219 221 222 220 218 214 213 215 217 218 217 212 208 209 210 212 213 211 212 209 201 205 206 190 187 200
216 201 209 219 228 240 241 236 245 246 245 256 244 215 223 250 213 177 180 184 188 195 198 195 191 189 190 191 191 192 192 192 193 194 195 197 197 199 200 201 201 201 201 202 203 203 204 205 206 207 208 210 211 211 212 212 212 213 213 213 214 215 216 216 214 211 210 212 214 217 220 222 223 224 222 219 216 214 213 215 218 218 213 209 209 210 211 212 210 209 210 208 210 215 209 198 200
201 206 225 234 232 239 239 225 221 224 238 244 230 214 221 248 240 186 181 186 188 191 196 196 192 190 191 192 191 191 191 191 193 195 196 197 198 198 198 199 200 200 201 200 201 202 203 205 206 208 209 210 212 213 214 214 214 214 215 215 215 215 216 216 214 211 209 210 214 217 221 223 224 226 224 221 217 215 213 214 218 219 214 211 211 210 210 212 210 207 210 212 213 218 219 212 207
204 199 214 239 255 263 259 220 188 207 238 247 221 213 218 239 254 209 193 194 189 184 187 192 192 191 193 193 191 190 191 192 193 194 195 196 196 197 197 198 199 199 199 200 200 202 204 206 207 207 209 211 213 214 215 216 216 216 216 216 216 216 218 218 216 213 210 210 213 217 220 222 224 227 226 222 216 214 215 215 217 220 215 211 211 210 210 212 212 210 213 217 215 215 219 221 217
207 201 196 213 228 239 235 220 201 207 236 242 199 198 223 231 238 216 203 207 197 189 187 185 188 193 194 193 191 190 191 192 193 193 194 194 195 196 196 197 197 198 199 200 201 202 203 206 207 207 208 210 213 214 215 216 217 218 217 217 217 217 218 219 219 217 215 215 215 216 218 220 222 224 224 220 214 213 216 215 215 219 218 213 210 210 210 212 215 213 215 220 218 215 219 224 224
199 200 194 195 197 209 223 230 230 210 233 238 186 182 231 244 249 220 202 209 198 193 193 188 188 193 194 193 191 191 192 192 193 193 193 194 195 196 196 196 196 198 200 201 201 202 203 205 206 207 208 211 213 214 215 216 218 221 220 219 218 218 218 219 220 220 220 220 219 218 218 220 221 222 221 218 213 215 218 217 216 219 221 218 214 212 211 212 217 218 217 220 221 218 220 226 228
203 200 187 196 196 193 203 211 211 205 239 246 193 188 205 197 234 220 201 209 192 186 195 195 194 194 192 192 191 190 192 192 192 194 194 195 196 196 195 195 196 198 199 200 201 202 203 204 206 208 209 211 213 214 216 217 220 222 222 221 220 219 219 219 220 221 222 223 223 223 223 224 223 222 221 218 216 217 219 219 217 218 222 222 219 216 213 213 216 219 220 222 224 222 222 226 230
206 195 186 208 196 161 179 215 192 147 185 243 208 204 210 197 248 251 218 234 205 181 189 196 197 195 191 190 190 190 191 191 192 194 196 197 197 197 196 195 196 197 199 200 201 202 203 205 207 209 211 213 214 215 216 218 220 221 222 222 220 220 220 220 219 220 221 224 226 227 228 228 226 223 221 220 219 218 219 219 218 218 220 222 223 221 218 217 217 218 220 223 226 225 223 225 228
190 198 202 199 164 142 176 244 232 125 171 241 234 242 284 279 276 281 254 255 244 178 178 187 193 193 190 188 190 191 191 191 193 195 197 197 197 197 197 197 197 197 198 200 201 203 205 206 208 209 211 213 215 216 216 218 219 220 221 221 221 220 220 220 219 219 221 223 226 229 231 230 228 224 221 220 219 219 219 219 219 218 218 219 222 224 223 222 221 221 222 223 226 228 227 227 227
164 199 197 147 122 153 172 210 260 166 192 255 260 243 252 219 246 267 239 236 251 206 175 181 189 188 187 188 190 192 192 192 195 197 197 197 198 198 198 199 199 198 199 201 202 204 205 207 209 209 210 212 215 217 217 218 218 219 220 221 221 221 221 221 220 221 222 223 226 228 229 229 229 227 224 223 223 222 222 223 222 221 220 219 220 223 225 226 225 225 225 227 228 229 231 231 229
192 190 169 146 165 196 177 177 204 190 197 260 278 250 228 204 221 242 221 221 239 230 185 181 187 185 186 188 190 193 193 192 195 197 197 197 198 199 199 199 200 200 201 202 203 204 205 207 210 211 213 214 216 217 218 218 219 220 221 221 221 222 222 222 221 222 222 223 225 226 226 227 228 229 228 228 228 227 226 227 227 226 226 224 222 223 225 227 228 229 229 230 230 231 233 233 232
200 170 162 174 185 184 175 181 178 164 189 219 250 260 241 230 214 214 222 219 222 227 203 181 184 183 185 188 190 193 192 192 194 196 196 197 198 199 200 200 201 201 202 203 203 203 205 207 209 212 214 215 216 216 217 218 219 220 221 221 222 222 223 223 223 223 223 224 225 226 227 228 228 229 230 231 231 231 230 229 229 229 228 228 226 225 225 226 229 231 232 232 232 233 235 236 235
197 174 181 189 169 147 173 201 174 146 159 190 201 240 250 247 223 220 228 221 212 218 212 188 180 181 184 188 191 192 193 194 195 196 196 197 198 199 200 201 202 202 202 202 203 204 206 207 209 212 213 213 215 216 218 219 220 221 221 222 223 223 224 224 225 225 225 226 226 226 228 229 229 229 230 231 233 232 233 233 232 231 229 229 229 227 227 227 229 231 232 233 234 235 238 240 239
202 179 187 192 167 143 178 224 227 170 161 170 174 223 256 247 220 221 228 222 213 215 212 189 175 180 184 189 192 192 192 194 195 196 196 196 197 198 199 200 201 201 201 201 202 204 205 207 209 211 212 213 215 216 218 220 221 222 223 224 224 225 225 226 226 226 226 227 227 228 228 229 229 230 230 231 233 234 234 235 234 234 232 231 231 230 229 229 229 230 231 232 234 236 238 241 242